User: anonymous   Login
Location: Powder Track
(41.8531°N, 72.3584°W)
Time: 04:17:12
(UTC+00:00)
Language:

Explorer 11/Cluster Stage 4 - Orbit

View from above orbital plane
View from above orbital plane
View from above satellite
View from above satellite

Ground track
Ground track

The orbit data is extracted from the following two-line orbital elements,

1 00107U 61013A   21206.88343417  .00000650  00000-0  65521-4 0  9992
2 00107  28.7900  62.5260 0545530 189.9909 168.9418 14.09267060 23180
Epoch (UTC): 25 July 2021 21:12:08
Eccentricity: 0.0545530
inclination: 28.7900°
perigee height: 467 km
apogee height: 1257 km
right ascension of ascending node: 62.5260°
argument of perigee: 189.9909°
revolutions per day: 14.09267060
mean anomaly at epoch: 168.9418°
orbit number at epoch: 2318

The dashed part of the orbit path shows where the satellite is in the earth's shadow,  

DLR